Georgetown, DE

9:28 AM EST on February 10, 2016 (GMT -0500)
Sussex County

Weather History for KGED - July, 2014

Change the Weather History Date:

Monday, July 28, 2014

  Actual Average Record
Temperature  
Mean Temperature 78 °F 77 °F  
Max Temperature 86 °F 86 °F 99 °F (1949)
Min Temperature 70 °F 68 °F 47 °F (1977)
Degree Days  
Heating Degree Days 0 0  
Month to date heating degree days 0 0  
Since 1 June heating degree days 5 13  
Since 1 July heating degree days 0 0  
Cooling Degree Days 13 12  
Month to date cooling degree days 328 331  
Year to date cooling degree days 683 664  
Since 1 June cooling degree days 582 570  
Growing Degree Days 28 (Base 50)    
Moisture  
Dew Point 65 °F    
Average Humidity 67    
Maximum Humidity 93    
Minimum Humidity 40    
Precipitation  
Precipitation 0.00 in 0.13 in 1.98 in (1994)
Month to date precipitation 7.02 3.77  
Year to date precipitation 25.98 25.32  
Sea Level Pressure  
Sea Level Pressure 29.65 in    
Wind  
Wind Speed 8 mph (SSW)    
Max Wind Speed 16 mph    
Max Gust Speed 25 mph    
Visibility 10 miles    
Events      
T = Trace of Precipitation, MM = Missing Value Source: NWS Daily Summary

Daily Weather History Graph

Daily Weather History Graph

Search for Another Location

Airport or City:

Trip Planner

Search our weather history database for the weather conditions in past years. The results will help you decide how hot, cold, wet, or windy it might be!

Date:

Astronomy

Jul. 28, 2014 Rise Set
Actual Time 5:59 AM EDT 8:15 PM EDT
Civil Twilight 5:29 AM EDT 8:45 PM EDT
Nautical Twilight 4:52 AM EDT 9:22 PM EDT
Astronomical Twilight 4:12 AM EDT 10:02 PM EDT
Moon 7:37 AM EDT (7/28) 8:58 PM EDT (7/28)
Length of Visible Light 15h 16m
Length of Day
14h 16m
Waxing Crescent, 3% of the Moon is Illuminated
Jul 28
Waxing Crescent
Aug 3
First Quarter
Aug 10
Full
Aug 17
Last Quarter
Aug 25
New

Hourly Weather History & Observations

Time (EDT) Temp. Heat Index Dew Point Humidity Pressure Visibility Wind Dir Wind Speed Gust Speed Precip Events Conditions
12:54 AM 75.0 °F - 71.1 °F 87% 29.65 in 10.0 mi South 15.0 mph - N/A   Scattered Clouds
1:54 AM 75.0 °F - 71.1 °F 87% 29.62 in 10.0 mi SSE 13.8 mph - N/A   Mostly Cloudy
2:54 AM 73.9 °F - 71.1 °F 91% 29.61 in 9.0 mi SSE 8.1 mph - N/A   Clear
3:54 AM 73.0 °F - 71.1 °F 93% 29.59 in 8.0 mi South 9.2 mph - N/A   Clear
4:54 AM 73.0 °F - 71.1 °F 93% 29.59 in 7.0 mi South 8.1 mph - N/A   Clear
5:54 AM 73.9 °F - 72.0 °F 93% 29.60 in 8.0 mi South 9.2 mph - N/A   Clear
6:54 AM 75.9 °F - 72.0 °F 87% 29.60 in 9.0 mi South 8.1 mph - N/A   Clear
7:54 AM 77.0 °F - 73.0 °F 88% 29.61 in 9.0 mi South 6.9 mph - N/A   Clear
8:54 AM 81.0 °F 85.2 °F 72.0 °F 74% 29.61 in 10.0 mi Variable 6.9 mph - N/A   Clear
9:54 AM 82.9 °F 86.5 °F 69.1 °F 63% 29.61 in 10.0 mi SSW 10.4 mph 19.6 mph N/A   Clear
10:54 AM 84.0 °F 84.9 °F 63.0 °F 49% 29.62 in 10.0 mi Variable 6.9 mph 18.4 mph N/A   Mostly Cloudy
11:54 AM 82.0 °F 83.0 °F 62.1 °F 51% 29.64 in 10.0 mi Variable 6.9 mph - N/A   Mostly Cloudy
12:54 PM 82.9 °F 83.3 °F 61.0 °F 47% 29.64 in 10.0 mi Variable 6.9 mph 16.1 mph N/A   Scattered Clouds
1:54 PM 84.0 °F 84.0 °F 60.1 °F 44% 29.65 in 10.0 mi West 11.5 mph 19.6 mph N/A   Mostly Cloudy
2:54 PM 84.0 °F 83.5 °F 57.9 °F 41% 29.65 in 10.0 mi WSW 11.5 mph 24.2 mph N/A   Partly Cloudy
4:54 PM 84.0 °F 83.5 °F 57.9 °F 41% 29.66 in 10.0 mi WSW 8.1 mph 20.7 mph N/A   Partly Cloudy
5:54 PM 82.9 °F 82.6 °F 57.9 °F 42% 29.68 in 10.0 mi WSW 8.1 mph - N/A   Scattered Clouds
6:54 PM 82.0 °F 81.7 °F 57.0 °F 42% 29.69 in 10.0 mi Variable 6.9 mph - N/A   Overcast
7:54 PM 79.0 °F - 57.9 °F 48% 29.71 in 10.0 mi South 6.9 mph - N/A   Overcast
8:54 PM 77.0 °F - 59.0 °F 54% 29.74 in 10.0 mi South 6.9 mph - N/A   Scattered Clouds
9:54 PM 75.0 °F - 60.1 °F 60% 29.76 in 10.0 mi South 6.9 mph - N/A   Mostly Cloudy
10:54 PM 73.9 °F - 59.0 °F 59% 29.75 in 10.0 mi Variable 6.9 mph - N/A   Clear
11:54 PM 72.0 °F - 60.1 °F 66% 29.77 in 10.0 mi Variable 5.8 mph - N/A   Clear